www.pogodaiklimat.ru

АРХИВ ПОГОДЫ в Шарлотте

Время (UTC), дата Ветер
(напр.,м/с)
 
Видим.   Явления Облачность Т
(С)
Тd
(С)
f
(%)
Тe
(С)
Тes
(С)
Комфортность

P
(гПа)

Po
(гПа)
Тmin
(С)
Tmax
(С)
R
(мм)
SD
(см)
00:52 27.09 Ю  8 км  дымка  10/10 м
[средняя верхняя] 
+23.0  +22.0  94  +31  +31  очень
душно 
1017.3  990.9  +22.2  +23.9  0.5   
01:52 27.09 нст  14 км    10/10 м
[средняя верхняя] 
+22.8  +22.2  96  +31  +31  очень
душно 
1016.8  990.3  +22.2  +23.9  0.5   
02:52 27.09 штиль  16 км    10/10 м
[средняя верхняя] 
+22.0  +22.0  100  +29  +29  очень
душно 
1017.8  991.3  +22.2  +23.9  0.5   
03:52 27.09 Ю  13 км    10/10 м
[средняя верхняя] 
+22.2  +22.2  100  +30  +30  очень
душно 
1017.2  990.9  +22.2  +23.9  0.5   
04:52 27.09 Ю  11 км    10/10 м
[средняя верхняя] 
+22.2  +21.7  97  +29  +29  очень
душно 
1016.9  990.6  +22.2  +23.9  0.5   
05:52 27.09 Ю  13 км    10/10 м
[средняя верхняя] 
+22.0  +22.0  100  +29  +29  очень
душно 
1016.7  990.3  +21.7  +22.2  3.0   
06:52 27.09 ЮЗ  13 км    10/10 м
[средняя верхняя] 
+22.0  +22.0  100  +29  +29  очень
душно 
1016.5  990.3  +21.7  +22.2  3.0   
07:52 27.09 ЮЗ  13 км    10/10 м
[средняя верхняя] 
+21.7  +21.7  100  +28  +28  душно  1016.3  989.9  +21.7  +22.2  3.0   
08:15 27.09 штиль  10 км    10/10 м
[средняя верхняя] 
+22.0  +22.0  100  +29  +29  очень
душно 
1016.7  989.9  +21.7  +22.2  3.0   
09:52 27.09 Ю  14 км    10/10 м
[средняя верхняя] 
+22.0  +22.0  100  +29  +29  очень
душно 
1017.0  990.6  +21.7  +22.2  3.0   
10:26 27.09 З  11 км    10/10 м
[средняя верхняя] 
+22.0  +22.0  100  +29  +29  очень
душно 
1017.6  990.9  +21.7  +22.2  3.0   
11:52 27.09 штиль  10 км    10/10 м
[средняя верхняя] 
+23.0  +22.0  94  +31  +31  очень
душно 
1017.6  990.9  +22.2  +27.8  18.0   
13:52 27.09 З  11 км    10/10 м
[средняя верхняя] 
0.0  0.0  100  -5  -5    1017.8  991.3  +22.2  +27.8  18.0   
14:52 27.09 Ю  16 км    10/10 м
[средняя верхняя] 
0.0  0.0  100  -6  -6    1017.5  990.9  +22.2  +27.8  18.0   
15:52 27.09 Ю  13 км    10/10 м
[средняя верхняя] 
0.0  0.0  100  -6  -6    1016.9  990.3  +22.2  +27.8  18.0   
16:38 27.09 ЮЗ  14 км    10/10 м
[средняя верхняя] 
0.0  0.0  100  -5  -5    1015.7  989.6  +22.2  +27.8  18.0   
17:52 27.09 З  16 км    10/10 м
[средняя верхняя] 
+27.0  +24.0  84  +37  +37  очень
душно 
1014.7  988.3  +22.8  +28.3  18.0   
18:14 27.09 З  14 км    10/10 м
[средняя верхняя] 
+27.0  +24.0  84  +37  +37  очень
душно 
1014.1  988.0  +22.8  +28.3  18.0   
19:17 27.09 нст  16 км    10/10 м
[средняя верхняя] 
+27.0  +23.0  79  +36  +36  очень
душно 
1013.6  987.6  +22.8  +28.3  18.0   
20:30 27.09 ЮЗ  16 км    10/10 м
[средняя верхняя] 
+27.0  +23.0  79  +36  +36  очень
душно 
1013.7  987.0  +22.8  +28.3  18.0   
21:52 27.09 штиль  16 км    10/10 м
[средняя верхняя] 
+26.0  +23.0  84  +35  +35  очень
душно 
1013.5    +22.8  +28.3  18.0   
22:52 27.09 Ю  16 км    10/10 м
[средняя верхняя] 
+25.6  +23.3  87  +34  +34  очень
душно 
1013.5  987.3  +22.8  +28.3  18.0   
23:46 27.09 Ю  16 км    10/10 м
[средняя верхняя] 
0.0  0.0  100  -7  -7    1013.9  987.3  +21.1  +25.6  5.1   
00:11 28.09 ЮЗ  9
{15} 
3 км    10/10 м
[средняя верхняя] 
+23.0  +22.0  94  +31  +31  очень
душно 
1015.5    +21.1  +25.6  5.1   
01:52 28.09 Ю  16 км    10/10 м
[средняя верхняя] 
+21.7  +21.1  96  +28  +28  душно  1015.8  989.3  +21.1  +25.6  5.1   
02:52 28.09 Ю  16 км    10/10 м
[средняя верхняя] 
+22.0  +21.0  94  +28  +28  душно  1016.1  989.6  +21.1  +25.6  5.1   
03:52 28.09 Ю  16 км  дымка  10/10 м
[средняя верхняя] 
+21.7  +21.1  96  +28  +28  душно  1015.3  989.0  +21.1  +25.6  5.1   
04:52 28.09 ЮЗ  16 км  дымка  10/10 м
[средняя верхняя] 
+21.1  +21.1  100  +26  +26  душно  1015.1  988.6  +21.1  +25.6  5.1   
05:52 28.09 Ю  16 км  дымка  10/10 м
[средняя верхняя] 
+22.0  +21.0  94  +28  +28  душно  1015.2  989.0  +21.1  +21.7     
06:28 28.09 ЮЗ  16 км  мгла  10/10 м
[средняя верхняя] 
+22.0  +21.0  94  +28  +28  душно  1015.3  989.3  +21.1  +21.7     
07:52 28.09 ЮЗ  14 км    10/10 м
[средняя верхняя] 
+21.7  +21.7  100  +28  +28  душно  1015.6  989.3  +21.1  +21.7     
08:52 28.09 ЮЗ  11 км    10/10 м
[средняя верхняя] 
+22.0  +22.0  100  +29  +29  очень
душно 
1016.3  989.9  +21.1  +21.7     
09:52 28.09 ЮЗ  11 км    10/10 м
[средняя верхняя] 
+22.0  +22.0  100  +29  +29  очень
душно 
1016.9  990.3  +21.1  +21.7     
10:52 28.09 ЮЗ  10 км    10/10 м
[средняя верхняя] 
+21.7  +21.7  100  +28  +28  душно  1017.6  991.3  +21.1  +21.7     
11:52 28.09 ЮЗ  8 км    10/10 м
[средняя верхняя] 
+22.0  +22.0  100  +29  +29  очень
душно 
1018.3  991.9  +21.7  +27.2     
12:52 28.09 ЮЗ  8 км    10/10 м
[средняя верхняя] 
+22.0  +22.0  100  +29  +29  очень
душно 
1018.8  992.2  +21.7  +27.2     
13:52 28.09 З  13 км    10/10 м
[средняя верхняя] 
+23.3  +22.2  94  +32  +32  очень
душно 
1019.0  992.6  +21.7  +27.2     
14:15 28.09 ЮЗ  11 км    10/10 м
[средняя верхняя] 
+23.0  +22.0  94  +31  +31  очень
душно 
1019.1  992.6  +21.7  +27.2     
15:24 28.09 штиль  16 км    10/10 м
[средняя верхняя] 
+26.0  +22.0  79  +34  +34  очень
душно 
1018.9  992.6  +21.7  +27.2     
16:52 28.09 Ю  16 км    10/10 м
[средняя верхняя] 
+27.2  +22.2  74  +35  +35  очень
душно 
1018.8  992.2  +21.7  +27.2     
17:52 28.09 штиль  16 км    10/10 м
[средняя верхняя] 
0.0  0.0  100  -1  -1    1018.1  991.6  +25.0  +28.9     
18:52 28.09 штиль  16 км    10/10 м
[средняя верхняя] 
+28.0  +21.0  66  +35  +35  очень
душно 
1018.0  991.6  +25.0  +28.9     
19:52 28.09 ЮЗ  16 км    10/10 м
[средняя верхняя] 
+27.8  +21.7  69  +36  +36  очень
душно 
1018.1  991.6  +25.0  +28.9     
20:52 28.09 ЮЗ  16 км    10/10 м
[средняя верхняя] 
+27.0  +22.0  74  +35  +35  очень
душно 
1018.2  991.6  +25.0  +28.9     
21:52 28.09 штиль  16 км    10/10 м
[средняя верхняя] 
+26.0  +23.0  84  +35  +35  очень
душно 
1018.4  991.9  +25.0  +28.9     
22:52 28.09 штиль  16 км    10/10 м
[средняя верхняя] 
+25.0  +22.2  84  +32  +32  очень
душно 
1019.0  992.6  +25.0  +28.9     
23:52 28.09 Ю  16 км    10/10 м
[средняя верхняя] 
+24.0  +23.0  94  +32  +32  очень
душно 
1019.7  993.2  +22.2  +25.0     
00:52 29.09 Ю  16 км  дымка  10/10 м
[средняя верхняя] 
+24.0  +22.0  89  +31  +31  очень
душно 
1020.3  993.9  +22.2  +25.0     

 

Местоположение метеостанции Charlotte / Douglas International Airport: широта 35.2133 долгота -80.9486 высота над уровнем моря 228 м.

В архиве по умолчанию представлена погода в Шарлотте за последние 1-2 суток. Обновление информации о фактической погоде в базе происходит ежечасно! Архивные данные за месяц целиком и за предыдущие месяцы Вы можете получить, выбрав интересующий диапазон дат из раскрывающегося списка и нажав кнопку "Ввод!".

Внимание! Архив погоды МЕТАР в базе сайта в настоящее время начинается c 1 января 2013 г. Нет смысла пытаться выбрать более раннюю дату.

Внимание! Время в таблицах - всемирное. Для получения местного времени необходимо прибавить поправку, которая в Шарлотте равна -5 ч.

Ветер - указаны скорость ветра в м/с и направление, откуда дует ветер: С - северный, СВ - северо-восточный, В - восточный, ЮВ - юго-восточный, Ю - южный, ЮЗ - юго-западный, З - западный, СЗ - северо-западный.
Видимость - горизонтальная дальность видимости в метрах или километрах. При видимости от 1 до 10 км при отсутствии осадков обычно наблюдается дымка, при ухудшении видимости до 1 км и менее - туман. В сухую погоду видимость может ухудшаться дымом, пылью или мглою.
Атмосферные явления - указаны явления, наблюдавшиеся в указанный момент времени.
Облачность - указаны через наклонную черту верхняя и нижняя облачность в баллах и высота нижней границы облаков в метрах. Внимание: облачность, как и прочие метеорологические величины в США измеряются автоматическими метеостанциями. Указанные значения в баллах носят условный характер и показывают процент времени, в течение которого, в среднем, лазерный луч высотомера отражался от облаков обратно.
T - Температура воздуха - температура, измеренная на высоте 2 м над землей.
Td - Температура точки росы - температура, при понижении до которой содержащийся в воздухе водяной пар достигнет насыщения.
f - Относительная влажность воздуха - влажноcть воздуха, измеренная на высоте 2 м над землей.
Te - Эффективная температура - температура, которую ощущает одетый по сезону человек в тени. Характеристика душности погоды. При расчете учитывается влияние влажности воздуха и скорости ветра на теплоощущения человека.
Tes - Эффективная температура на солнце - температура, которую ощущает человек, с поправкой на солнечный нагрев. Характеристика знойности погоды. Зависит от высоты солнца над горизонтом, облачности и скорости ветра. Ночью, в пасмурную погоду, а также при ветре 12 м/с и более поправка равна нулю.
P - Атмосферное давление - приведенное к уровню моря атмосферное давление.
Po - Атмосферное давление - измеренное на уровне метеостанции атмосферное давление.
Tmin - Минимальная температура - минимум температуры воздуха на высоте 2 м над землей.
Tmax - Максимальная температура - максимум температуры воздуха на высоте 2 м над землей.
R - Количество осадков - Количество выпавших осадков за 3 или 6 часов, мм.
SD - Снежный покров - Высота снежного покрова, см.